Location: Bukowno
(50.2692°N, 19.4529°E)
Time: 22:15:07
(UTC+01:00)

ISS - Visible Passes

Search period start: 19 January 2018 00:00
Search period end: 29 January 2018 00:00
Orbit: 402 x 407 km, 51.6° (Epoch: 20 January)

Date Brightness Start Highest point End Pass type
(mag) Time Alt. Az. Time Alt. Az. Time Alt. Az.
25 Jan -1.2 18:13:16 10° SSE 18:13:26 10° SSE 18:13:26 10° SSE visible
26 Jan -1.4 18:55:11 10° SW 18:56:11 17° SSW 18:56:11 17° SSW visible
27 Jan -2.3 18:03:21 10° SSW 18:05:57 22° SE 18:06:11 22° SE visible
27 Jan -0.3 19:38:49 10° WSW 19:38:51 10° WSW 19:38:51 10° WSW visible
28 Jan -1.6 17:11:58 10° S 17:13:46 14° SE 17:15:35 10° ESE visible
28 Jan -2.7 18:46:30 10° WSW 18:48:46 38° SW 18:48:46 38° SW visible
